TimeEST,TemperatureF,Dew PointF,Humidity,Sea Level PressureIn,VisibilityMPH,Wind Direction,Wind SpeedMPH,Gust SpeedMPH,PrecipitationIn,Events,Conditions,WindDirDegrees,DateUTC
12:15 AM,24.6,18.3,77,30.16,10.0,Calm,Calm,-,N/A,,Clear,0,2013-02-26 05:15:00
12:35 AM,25.2,18.9,77,30.16,10.0,Calm,Calm,-,N/A,,Clear,0,2013-02-26 05:35:00
12:55 AM,23.9,18.1,79,30.18,10.0,Calm,Calm,-,N/A,,Scattered Clouds,0,2013-02-26 05:55:00
1:15 AM,24.8,18.9,78,30.17,10.0,Calm,Calm,-,N/A,,Scattered Clouds,0,2013-02-26 06:15:00
1:35 AM,24.8,18.9,78,30.18,10.0,Calm,Calm,-,N/A,,Clear,0,2013-02-26 06:35:00
1:55 AM,25.9,19.4,76,30.16,10.0,Calm,Calm,-,N/A,,Clear,0,2013-02-26 06:55:00
2:15 AM,25.7,19.2,76,30.16,10.0,Calm,Calm,-,N/A,,Clear,0,2013-02-26 07:15:00
2:35 AM,24.8,19.4,80,30.15,10.0,Calm,Calm,-,N/A,,Clear,0,2013-02-26 07:35:00
2:55 AM,25.2,19.4,79,30.14,10.0,Calm,Calm,-,N/A,,Clear,0,2013-02-26 07:55:00
3:15 AM,24.8,19.4,80,30.15,10.0,Calm,Calm,-,N/A,,Clear,0,2013-02-26 08:15:00
3:35 AM,26.4,19.4,75,30.12,10.0,Calm,Calm,-,N/A,,Clear,0,2013-02-26 08:35:00
3:55 AM,25.7,20.1,79,30.12,10.0,Calm,Calm,-,N/A,,Clear,0,2013-02-26 08:55:00
4:15 AM,26.2,20.7,79,30.12,10.0,Calm,Calm,-,N/A,,Clear,0,2013-02-26 09:15:00
4:35 AM,26.1,21.0,81,30.12,10.0,Calm,Calm,-,N/A,,Clear,0,2013-02-26 09:35:00
4:55 AM,26.4,21.4,81,30.12,10.0,Calm,Calm,-,N/A,,Clear,0,2013-02-26 09:55:00
5:15 AM,27.0,21.7,81,30.12,10.0,Calm,Calm,-,N/A,,Clear,0,2013-02-26 10:15:00
5:35 AM,27.3,21.9,80,30.12,10.0,Calm,Calm,-,N/A,,Clear,0,2013-02-26 10:35:00
5:55 AM,27.7,22.1,80,30.13,10.0,Calm,Calm,-,N/A,,Clear,0,2013-02-26 10:55:00
6:15 AM,27.7,22.3,80,30.13,10.0,Calm,Calm,-,N/A,,Mostly Cloudy,0,2013-02-26 11:15:00
6:35 AM,28.9,22.8,78,30.11,10.0,Calm,Calm,-,N/A,,Overcast,0,2013-02-26 11:35:00
6:55 AM,30.0,22.8,75,30.11,10.0,Calm,Calm,-,N/A,,Overcast,0,2013-02-26 11:55:00
7:15 AM,29.8,23.4,77,30.11,10.0,Calm,Calm,-,N/A,,Overcast,0,2013-02-26 12:15:00
7:35 AM,30.7,24.4,77,30.11,10.0,Calm,Calm,-,N/A,,Overcast,0,2013-02-26 12:35:00
7:55 AM,31.3,25.5,79,30.11,10.0,Calm,Calm,-,N/A,,Overcast,0,2013-02-26 12:55:00
8:15 AM,32.0,26.1,79,30.12,10.0,Calm,Calm,-,N/A,,Overcast,0,2013-02-26 13:15:00
8:35 AM,33.1,27.3,79,30.11,10.0,Calm,Calm,-,N/A,,Overcast,0,2013-02-26 13:35:00
8:55 AM,34.0,25.9,72,30.11,10.0,Calm,Calm,-,N/A,,Overcast,0,2013-02-26 13:55:00
9:15 AM,34.3,26.6,73,30.11,10.0,Calm,Calm,-,N/A,,Overcast,0,2013-02-26 14:15:00
9:35 AM,34.7,26.8,73,30.11,5.0,Calm,Calm,-,N/A,Rain,Light Rain,0,2013-02-26 14:35:00
9:55 AM,34.7,27.9,76,30.09,7.0,Calm,Calm,-,N/A,Rain,Rain,0,2013-02-26 14:55:00
10:15 AM,34.9,28.6,78,30.08,10.0,Calm,Calm,-,N/A,Rain,Rain,0,2013-02-26 15:15:00
10:35 AM,35.6,29.1,77,30.08,10.0,Calm,Calm,-,N/A,,Light Drizzle,0,2013-02-26 15:35:00
10:55 AM,35.6,28.8,76,30.06,7.0,Calm,Calm,-,N/A,Rain,Light Rain,0,2013-02-26 15:55:00
11:15 AM,35.8,28.9,76,30.06,7.0,Calm,Calm,-,N/A,Rain,Light Rain,0,2013-02-26 16:15:00
11:35 AM,36.0,29.5,77,30.05,5.0,Calm,Calm,-,0.01,Rain,Light Rain,0,2013-02-26 16:35:00
11:55 AM,35.8,30.7,82,30.04,4.0,NNW,4.6,-,0.03,Rain,Light Rain,340,2013-02-26 16:55:00
12:15 PM,35.6,31.5,85,30.01,5.0,NNE,5.8,-,N/A,Rain,Light Rain,20,2013-02-26 17:15:00
12:35 PM,36.3,31.8,84,29.99,5.0,NNE,8.1,-,0.01,Rain,Light Rain,20,2013-02-26 17:35:00
12:55 PM,36.3,32.2,85,29.97,7.0,NNE,9.2,-,0.01,Rain,Light Rain,20,2013-02-26 17:55:00
1:15 PM,35.8,32.0,86,29.94,3.0,North,5.8,-,0.01,,Drizzle,10,2013-02-26 18:15:00
1:35 PM,35.8,32.5,88,29.92,2.5,North,8.1,-,0.01,Rain,Rain,360,2013-02-26 18:35:00
1:55 PM,35.6,32.5,89,29.90,3.0,North,5.8,-,0.03,Rain,Light Rain,10,2013-02-26 18:55:00
2:15 PM,36.1,33.3,89,29.87,1.5,NNE,9.2,-,0.04,Rain,Rain,20,2013-02-26 19:15:00
2:35 PM,36.1,33.8,91,29.86,2.0,North,9.2,-,0.07,Rain,Rain,350,2013-02-26 19:35:00
2:55 PM,36.7,34.5,92,29.83,1.8,NNW,6.9,-,0.11,Rain,Rain,340,2013-02-26 19:55:00
3:15 PM,37.4,34.9,91,29.82,1.5,NNW,8.1,-,0.03,Rain,Rain,340,2013-02-26 20:15:00
3:35 PM,37.4,35.2,92,29.81,1.8,NNW,4.6,-,0.05,Rain,Light Rain,340,2013-02-26 20:35:00
3:55 PM,37.8,35.6,92,29.78,1.2,NW,5.8,-,0.11,Rain,Heavy Rain,320,2013-02-26 20:55:00
4:15 PM,37.8,35.8,93,29.76,1.8,North,5.8,-,0.02,Rain,Heavy Rain,360,2013-02-26 21:15:00
4:35 PM,39.6,37.6,93,29.74,2.0,North,8.1,-,0.04,Rain,Rain,360,2013-02-26 21:35:00
4:55 PM,38.8,36.5,91,29.73,5.0,North,12.7,-,0.06,Rain,Rain,350,2013-02-26 21:55:00
5:15 PM,38.5,36.5,93,29.71,2.0,North,9.2,-,0.04,Rain,Rain,10,2013-02-26 22:15:00
5:35 PM,37.4,35.2,92,29.69,4.0,North,11.5,-,0.06,Rain,Rain,360,2013-02-26 22:35:00
5:55 PM,37.4,35.6,93,29.70,1.2,NNW,9.2,-,0.11,Rain,Heavy Rain,340,2013-02-26 22:55:00
6:15 PM,38.1,35.8,91,29.71,2.0,NNW,10.4,-,0.08,,Overcast,330,2013-02-26 23:15:00
6:35 PM,37.6,35.6,93,29.73,3.0,NW,6.9,-,0.13,Rain,Rain,320,2013-02-26 23:35:00
6:55 PM,37.6,35.6,93,29.72,3.0,North,10.4,-,0.19,Rain,Light Rain,10,2013-02-26 23:55:00
7:15 PM,37.9,36.0,93,29.71,7.0,North,8.1,-,N/A,,Drizzle,10,2013-02-27 00:15:00
7:35 PM,38.3,36.1,92,29.71,10.0,NNW,8.1,-,0.01,,Overcast,330,2013-02-27 00:35:00
7:55 PM,38.5,36.1,91,29.70,7.0,North,9.2,-,0.01,,Drizzle,350,2013-02-27 00:55:00
8:15 PM,38.5,36.1,91,29.68,7.0,North,10.4,-,N/A,,Drizzle,360,2013-02-27 01:15:00
8:35 PM,38.7,36.5,92,29.66,7.0,North,6.9,-,N/A,,Light Drizzle,360,2013-02-27 01:35:00
8:55 PM,38.8,36.7,92,29.67,7.0,NNW,4.6,-,N/A,,Overcast,330,2013-02-27 01:55:00
9:15 PM,39.2,36.9,91,29.67,3.0,North,6.9,-,N/A,,Drizzle,350,2013-02-27 02:15:00
9:35 PM,39.2,37.0,92,29.67,2.5,Calm,Calm,-,0.01,,Drizzle,0,2013-02-27 02:35:00
9:55 PM,39.2,37.4,93,29.66,2.5,NW,4.6,-,0.01,,Light Drizzle,320,2013-02-27 02:55:00
10:15 PM,39.2,37.4,93,29.66,2.5,NNW,4.6,-,N/A,,Light Drizzle,330,2013-02-27 03:15:00
10:35 PM,39.4,37.8,94,29.65,2.5,NNE,3.5,-,N/A,,Drizzle,20,2013-02-27 03:35:00
10:55 PM,39.4,37.8,94,29.66,2.0,Calm,Calm,-,N/A,,Light Drizzle,0,2013-02-27 03:55:00
11:15 PM,39.6,37.9,94,29.64,2.0,NNE,3.5,-,N/A,,Light Drizzle,20,2013-02-27 04:15:00
11:35 PM,39.6,37.9,94,29.64,2.5,Calm,Calm,-,N/A,,Light Drizzle,0,2013-02-27 04:35:00
11:55 PM,39.7,38.3,95,29.62,3.0,NNE,3.5,-,N/A,,Overcast,20,2013-02-27 04:55:00